FALCON HEAVY DEB, 55266

Orbit data source: Space-Track

FALCON HEAVY DEB, 55266 is space debris in GEO originally from a launch on Sun, 15 Jan 2023 UTC launched from the Air Force Eastern Test Range (AFETR). Debris objects in space refer to the collection of defunct objects orbiting the Earth. Examples of debris include non-operational satellites, rocket bodies, and fragments generated from explosions, collisions, or faulty payload assembly.

Not visible in the next 10 days
Identifier
55266, 2023-008D
Orbit
GEO
Country
Flag of USUS
Related business
Manufacturer
SpaceX
Mission
Spacecraft
Bus & Motor
Unknown
Mass
Unknown
Launch date (UTC)
2023-01-15 (3 years ago)
Launch vehicle
Unknown
Launch site
Air Force Eastern Test Range (AFETR)
Object type
Payload
Rocket body
Debris
Shape & HBR
Unknown shape, 1.1 m
Radar Cross Section
RCS unknown

Expand to show TLE details & history
Last TLE update: 1 day ago

TLE from 1 day ago
0 FALCON HEAVY DEB
1 55266U 23008D   25346.02349414  .00000024  00000-0  00000-0 0  9990
2 55266   2.6786  80.3649 0009971  80.4304 279.2983  1.02406286  6117
Epoch: 2025-12-12T00:33Z
TLE epoch observation values (Epoch: 2025-12-12T00:33:49.893Z)
Latitude
-0°
Longitude
-9.45051°
Altitude
35,191.448 km
Speed
3.097 km/s
True Right ascension
05h 19m 54s
True Declination
0° 00' 00"
Sunlit
Object was in daylight at epoch
Visualization orbit readout
Latitude
Unknown
Longitude
Unknown
Altitude
Unknown
Speed
Unknown
Apparent Right ascension
Unknown
Apparent Declination
Unknown
Sunlit
N/A
Visualization observer readout
Local Sidereal Time
07:35:04
Azimuth
Unknown
Elevation
Unknown
Doppler factor
Unknown
Orbital elements
Apogee altitude
35,241.173 km
Perigee altitude
35,158.259 km
Semi-major axis
41,577.853 km
Eccentricity
0.001
Inclination
2.6786°
RAAN
80.3649°
Arg. of periapsis
80.4304°
True anomaly
279.18552°
Mean anomaly
279.2983°
Eccentric anomaly
279.24191°
Mean motion
0.25601 °/min
Orbital period
1,406.22 mins
BSTAR
0
Loading maneuver chart data...
Computing Atmospheric mass density...
Loading historical data...
Loading historical data...
Loading historical data...
Loading historical data...
Loading historical data...
Loading historical data...
Loading historical data...
Other satellites on launch #8 in the year 2023 (2023-01-15 UTC)

Documentation

Showing up to 5 results
|